"2010-05-18 00:00:00",121420,4.247,133.8,8.14,0.299,16.73,107.4598,18.37,19.27,29.76,0,110.9,13.18,19.19,95.8
"2010-05-18 00:00:30",121421,3.725,127,6.865,0.286,16.74,107.4539,18.36,19.26,29.79,0,110.9,13.18,19.18,89.0
"2010-05-18 00:01:00",121422,3.371,122,1.694,0.166,16.73,107.4466,18.34,19.25,29.74,0,110.9,13.18,19.16,84.0
"2010-05-18 00:01:30",121423,3.637,131.9,3.435,0.296,16.68,107.4461,18.34,19.25,29.68,0,110.9,13.18,19.15,93.9
"2010-05-18 00:02:00",121424,4.384,139.4,2.969,0.289,16.7,107.4461,18.34,19.24,29.89,0,110.9,13.18,19.15,101.4
"2010-05-18 00:02:30",121425,4.648,145.5,2.941,0.394,16.77,107.4449,18.34,19.22,30.22,0,110.9,13.18,19.15,107.5
"2010-05-18 00:03:00",121426,4.085,142.8,2.784,0.21,16.62,107.4461,18.34,19.22,30.08,0,110.9,13.18,19.15,104.8
"2010-05-18 00:03:30",121427,4.494,140.1,1.828,0.167,16.63,107.4452,18.34,19.23,29.89,0,110.9,13.18,19.15,102.1
"2010-05-18 00:04:00",121428,5.228,141.7,3.327,0.624,16.74,107.447,18.34,19.22,30.61,0,110.9,13.18,19.16,103.7
"2010-05-18 00:04:30",121429,4.577,147,3.245,0.365,16.75,107.4461,18.34,19.23,31.67,0,110.9,13.18,19.15,109.0
"2010-05-18 00:05:00",121430,4.488,152,5.027,0.405,16.72,107.4452,18.34,19.22,32.04,0,110.9,13.18,19.15,114.0
"2010-05-18 00:05:30",121431,4.086,143.1,6.083,0.499,16.72,107.4461,18.34,19.22,31.43,0,110.9,13.18,19.15,105.1
"2010-05-18 00:06:00",121432,3.308,119,7.409,0.194,16.77,107.4455,18.34,19.22,30.4,0,110.9,13.18,19.15,81.0
"2010-05-18 00:06:30",121433,3.742,119.9,4.591,0.493,16.8,107.4449,18.34,19.21,30.47,0,110.9,13.18,19.15,81.9
"2010-05-18 00:07:00",121434,4.304,142.3,6.397,0.551,16.79,107.4452,18.34,19.2,31.3,0,110.9,13.18,19.15,104.3
"2010-05-18 00:07:30",121435,6.13,149.8,3.918,0.757,16.8,107.4461,18.34,19.21,33.03,0,110.9,13.18,19.15,111.8
"2010-05-18 00:08:00",121436,5.56,144.5,4.158,0.442,16.83,107.4455,18.34,19.21,33.11,0,110.9,13.18,19.15,106.5
"2010-05-18 00:08:30",121437,5.269,151.5,2.26,0.184,16.74,107.4444,18.33,19.21,33.2,0,110.9,13.18,19.15,113.5
"2010-05-18 00:09:00",121438,5.354,151.8,1.96,0.163,16.66,107.4437,18.33,19.2,33.05,0,110.9,13.18,19.15,113.8
"2010-05-18 00:09:30",121439,5.346,148.6,2.641,0.202,16.68,107.4408,18.33,19.2,33.09,0,110.9,13.18,19.14,110.6
"2010-05-18 00:10:00",121440,4.911,144.2,3.748,0.262,16.71,107.4431,18.33,19.2,33.05,0,110.9,13.18,19.15,106.2
"2010-05-18 00:10:30",121441,5.216,138.9,3.964,0.549,16.73,107.4406,18.32,19.2,32.99,0,110.9,13.18,19.14,100.9
"2010-05-18 00:11:00",121442,5.422,139.1,1.686,0.201,16.73,107.4327,18.3,19.19,32.84,0,110.9,13.18,19.12,101.1
"2010-05-18 00:11:30",121443,5.647,140.4,3.372,0.125,16.77,107.4301,18.3,19.19,32.82,0,110.9,13.18,19.11,102.4
"2010-05-18 00:12:00",121444,5.242,143.7,1.851,0.191,16.8,107.4283,18.29,19.18,32.97,0,110.9,13.18,19.11,105.7
"2010-05-18 00:12:30",121445,5.823,141.4,2.724,0.455,16.87,107.4264,18.29,19.18,33.38,0,110.9,13.18,19.10,103.4
"2010-05-18 00:13:00",121446,5.548,146.9,4.419,0.293,16.89,107.4228,18.28,19.19,33.48,0,110.9,13.18,19.10,108.9
"2010-05-18 00:13:30",121447,5.493,147.6,7.355,0.266,16.85,107.4196,18.27,19.17,33.65,0,110.9,13.18,19.09,109.6
"2010-05-18 00:14:00",121448,5.334,140.1,3.791,0.577,16.85,107.419,18.27,19.17,35.11,0,110.9,13.18,19.09,102.1
"2010-05-18 00:14:30",121449,6.467,143.7,3.982,0.242,16.82,107.4196,18.27,19.16,35.81,0,110.9,13.18,19.09,105.7
"2010-05-18 00:15:00",121450,6.804,145.9,2.533,0.235,16.77,107.4137,18.26,19.16,36.51,0,110.9,13.18,19.07,107.9
"2010-05-18 00:15:30",121451,7.209,142.9,5.025,0.538,16.87,107.3915,18.2,19.14,37.71,0,110.9,13.18,19.01,104.9
"2010-05-18 00:16:00",121452,6.812,151.4,1.683,0.44,16.91,107.3859,18.18,19.13,37.3,0,110.9,13.18,19.00,113.4
"2010-05-18 00:16:30",121453,6.676,146.1,3.006,0.275,16.84,107.3862,18.19,19.1,36.52,0,110.9,13.18,19.00,108.1
"2010-05-18 00:17:00",121454,6.332,145.1,3.632,0.327,16.83,107.3828,18.18,19.09,37.32,0,110.9,13.18,18.99,107.1
"2010-05-18 00:17:30",121455,6.98,143.1,1.5,0.236,16.86,107.3631,18.13,19.08,37.54,0,110.9,13.18,18.94,105.1
"2010-05-18 00:18:00",121456,7.157,144.7,3.305,0.156,16.91,107.3569,18.11,19.07,38.59,0,110.9,13.18,18.93,106.7
"2010-05-18 00:18:30",121457,7.117,142.2,2.291,0.154,16.86,107.3524,18.1,19.06,37.49,0,110.9,13.18,18.91,104.2
"2010-05-18 00:19:00",121458,7.566,137.9,1.158,0.17,16.81,107.3524,18.1,19.06,37.82,0,110.9,13.18,18.91,99.9
"2010-05-18 00:19:30",121459,7.062,143.1,3.619,0.234,16.88,107.3524,18.1,19.06,37.38,0,110.9,13.18,18.91,105.1
"2010-05-18 00:20:00",121460,7.139,149.1,2.652,0.337,16.92,107.3524,18.1,19.04,37.5,0,110.9,13.18,18.91,111.1
"2010-05-18 00:20:30",121461,6.813,150.5,3.315,0.322,16.95,107.3524,18.1,19.04,37.68,0,110.9,13.19,18.91,112.5
"2010-05-18 00:21:00",121462,6.788,150.3,4.193,0.451,16.88,107.3524,18.1,19.03,38.08,0,110.9,13.19,18.91,112.3
"2010-05-18 00:21:30",121463,6.32,143.9,6.198,0.356,16.82,107.3524,18.1,19.02,38.65,0,110.9,13.19,18.91,105.9
"2010-05-18 00:22:00",121464,6.111,144.1,3.688,0.404,16.85,107.3524,18.1,19.02,38.49,0,110.9,13.19,18.91,106.1
"2010-05-18 00:22:30",121465,6.623,153.3,4.429,0.642,16.8,107.3516,18.1,19,38.59,0,110.9,13.19,18.91,115.3
"2010-05-18 00:23:00",121466,7.364,157,1.781,1.245,16.78,107.346,18.08,19.03,39.71,0,110.9,13.19,18.90,119.0
"2010-05-18 00:23:30",121467,8.16,151.7,3.536,0.52,16.89,107.3336,18.05,19,39.98,0,110.9,13.19,18.87,113.7
"2010-05-18 00:24:00",121468,7.03,153.4,11.74,0.409,16.98,107.328,18.04,18.99,39.92,0,110.9,13.19,18.85,115.4
"2010-05-18 00:24:30",121469,6.462,167.8,6.724,0.673,16.98,107.3241,18.03,18.99,40.49,0,110.9,13.19,18.84,129.8
"2010-05-18 00:25:00",121470,6.93,176.4,10.52,0.687,16.95,107.3187,18.01,18.97,40.73,0,110.9,13.19,18.83,138.4
"2010-05-18 00:25:30",121471,6.822,176.8,4.033,0.332,17.11,107.3187,18.01,18.95,39.81,0,110.9,13.19,18.83,138.8
"2010-05-18 00:26:00",121472,7.792,175,3.464,0.582,17.12,107.3187,18.01,18.94,39.95,0,110.9,13.19,18.83,137.0
"2010-05-18 00:26:30",121473,7.792,164,9.4,0.257,17.08,107.319,18.01,18.94,40.14,0,110.9,13.19,18.83,126.0
"2010-05-18 00:27:00",121474,7.646,158.2,2.539,0.509,17.22,107.3187,18.01,18.94,40.79,0,110.9,13.19,18.83,120.2
"2010-05-18 00:27:30",121475,6.941,166.5,3.329,0.239,17.15,107.3196,18.01,18.93,40.18,0,110.9,13.19,18.83,128.5
"2010-05-18 00:28:00",121476,7.605,164.8,3.807,0.563,17.13,107.3179,18.01,18.91,39.97,0,110.9,13.19,18.83,126.8
"2010-05-18 00:28:30",121477,7.824,166.1,3.043,0.712,17.27,107.3021,17.97,18.9,40.05,0,110.9,13.19,18.78,128.1
"2010-05-18 00:29:00",121478,7.338,162.3,3.083,0.26,17.26,107.2929,17.95,18.9,39.24,0,110.9,13.19,18.76,124.3
"2010-05-18 00:29:30",121479,7.512,160.9,2.989,0.235,17.12,107.2861,17.93,18.88,39.76,0,110.9,13.19,18.74,122.9
"2010-05-18 00:30:00",121480,8.65,165,2.919,0.644,17.19,107.2874,17.93,18.89,39.91,0,110.9,13.19,18.75,127.0
"2010-05-18 00:30:30",121481,9.18,166.8,1.714,0.206,17.28,107.2892,17.94,18.88,39.78,0,110.9,13.19,18.75,128.8
"2010-05-18 00:31:00",121482,9.01,163.3,0.775,0.195,17.15,107.2913,17.94,18.86,39.43,0,110.9,13.19,18.76,125.3
"2010-05-18 00:31:30",121483,9.39,164,1.861,0.272,17.14,107.2977,17.96,18.87,39.5,0,110.9,13.19,18.77,126.0
"2010-05-18 00:32:00",121484,9.26,159.7,3.025,0.3,17.12,107.2998,17.96,18.87,39.44,0,110.9,13.19,18.78,121.7
"2010-05-18 00:32:30",121485,8.98,162.1,3.047,0.438,17.19,107.3005,17.97,18.86,39.61,0,110.9,13.19,18.78,124.1
"2010-05-18 00:33:00",121486,9.43,167.2,2.204,0.506,17.25,107.2915,17.94,18.86,39.61,0,110.9,13.19,18.76,129.2
"2010-05-18 00:33:30",121487,8.58,161.2,2.578,0.254,17.24,107.2839,17.92,18.85,39.4,0,110.9,13.19,18.74,123.2
"2010-05-18 00:34:00",121488,9.39,162.4,1.947,0.373,17.36,107.2809,17.92,18.83,39.42,0,110.9,13.19,18.73,124.4
"2010-05-18 00:34:30",121489,9.51,165.2,1.43,0.145,17.55,107.2787,17.91,18.83,39.51,0,110.9,13.18,18.72,127.2
"2010-05-18 00:35:00",121490,9.66,166.3,1.067,0.197,17.68,107.2784,17.91,18.82,39.85,0,110.9,13.19,18.72,128.3
"2010-05-18 00:35:30",121491,9.42,168.9,1.599,0.302,17.69,107.2781,17.91,18.81,39.49,0,110.9,13.19,18.72,130.9
"2010-05-18 00:36:00",121492,9.11,167.7,1.929,0.294,17.67,107.277,17.91,18.8,39.86,0,110.9,13.19,18.72,129.7
"2010-05-18 00:36:30",121493,8.4,168.2,3.432,0.345,17.69,107.2704,17.89,18.79,39.86,0,110.9,13.19,18.70,130.2
"2010-05-18 00:37:00",121494,8.63,165.1,1.683,0.171,17.6,107.2594,17.86,18.79,40.26,0,110.9,13.19,18.67,127.1
"2010-05-18 00:37:30",121495,8.72,166.5,1.378,0.155,17.64,107.2531,17.84,18.78,39.95,0,110.8,13.19,18.66,128.5
"2010-05-18 00:38:00",121496,9.04,164.3,1.148,0.348,17.63,107.2531,17.84,18.76,39.57,0,110.9,13.2,18.66,126.3
"2010-05-18 00:38:30",121497,8.99,163.9,1.222,0.289,17.52,107.2537,17.85,18.75,39.72,0,110.9,13.2,18.66,125.9
"2010-05-18 00:39:00",121498,9.58,164.6,0.958,0.152,17.44,107.2529,17.84,18.75,40.2,0,110.9,13.2,18.66,126.6
"2010-05-18 00:39:30",121499,9.24,165.1,2.226,0.261,17.33,107.2312,17.79,18.73,39.75,0,110.8,13.2,18.60,127.1
"2010-05-18 00:40:00",121500,9.08,167.7,1.444,0.204,17.33,107.2211,17.76,18.73,40.17,0,110.9,13.2,18.58,129.7
"2010-05-18 00:40:30",121501,8.88,167.4,2.099,0.235,17.25,107.22,17.76,18.71,40.44,0,110.8,13.2,18.57,129.4
"2010-05-18 00:41:00",121502,8.8,166.4,1.594,0.227,17.27,107.22,17.76,18.68,39.94,0,110.8,13.2,18.57,128.4
"2010-05-18 00:41:30",121503,9.21,168,1.137,0.193,17.39,107.22,17.76,18.7,39.92,0,110.8,13.21,18.57,130.0
"2010-05-18 00:42:00",121504,9.81,166.7,1.492,0.315,17.49,107.2172,17.75,18.68,40.03,0,110.8,13.21,18.57,128.7
"2010-05-18 00:42:30",121505,10.02,164.9,0.869,0.116,17.52,107.2011,17.71,18.68,40.15,0,110.8,13.21,18.52,126.9
"2010-05-18 00:43:00",121506,9.95,163,1.83,0.235,17.43,107.1927,17.69,18.66,40.57,0,110.8,13.21,18.50,125.0
"2010-05-18 00:43:30",121507,10.47,164.5,1.765,0.221,17.42,107.1885,17.68,18.67,40.63,0,110.8,13.21,18.49,126.5
"2010-05-18 00:44:00",121508,10.55,163.4,1.959,0.187,17.33,107.1877,17.68,18.66,40.98,0,110.8,13.21,18.49,125.4
"2010-05-18 00:44:30",121509,10.79,164.2,1.648,0.289,17.37,107.1898,17.68,18.65,40.66,0,110.8,13.21,18.50,126.2
"2010-05-18 00:45:00",121510,10.5,160.8,1.763,0.349,17.27,107.1892,17.68,18.66,40.62,0,110.8,13.21,18.49,122.8
"2010-05-18 00:45:30",121511,10.34,163.2,1.71,0.479,17.36,107.1884,17.68,18.64,40.66,0,110.8,13.21,18.49,125.2
"2010-05-18 00:46:00",121512,9.19,167.2,1.842,0.294,17.42,107.1774,17.65,18.63,40.98,0,110.8,13.21,18.46,129.2
"2010-05-18 00:46:30",121513,9.77,166.4,3.467,0.43,17.47,107.1626,17.61,18.62,41.22,0,110.8,13.21,18.43,128.4
"2010-05-18 00:47:00",121514,10.4,165,2.032,0.285,17.55,107.167,17.62,18.59,40.74,0,110.8,13.21,18.44,127.0
"2010-05-18 00:47:30",121515,9.92,169.3,1.421,0.294,17.62,107.1731,17.64,18.58,41.31,0,110.8,13.21,18.45,131.3
"2010-05-18 00:48:00",121516,10.07,169.5,2.166,0.47,17.64,107.1553,17.59,18.56,40.86,0,110.8,13.21,18.41,131.5
"2010-05-18 00:48:30",121517,11.35,167.6,1.222,0.563,17.69,107.1468,17.57,18.54,40.9,0,110.8,13.21,18.38,129.6
"2010-05-18 00:49:00",121518,11.09,167.2,1.935,0.207,17.62,107.1507,17.58,18.53,40.84,0,110.8,13.21,18.39,129.2
"2010-05-18 00:49:30",121519,10.36,166.6,1.676,0.237,17.57,107.1546,17.59,18.52,40.82,0,110.8,13.21,18.40,128.6
"2010-05-18 00:50:00",121520,10.89,167.8,1.645,0.237,17.57,107.154,17.59,18.52,40.7,0,110.8,13.21,18.40,129.8
"2010-05-18 00:50:30",121521,10.66,165.5,1.806,0.347,17.49,107.1549,17.59,18.52,40.85,0,110.8,13.21,18.41,127.5
"2010-05-18 00:51:00",121522,10.71,166.4,1.279,0.263,17.47,107.1549,17.59,18.51,40.62,0,110.8,13.21,18.41,128.4
"2010-05-18 00:51:30",121523,10.15,164.8,2.188,0.427,17.33,107.1549,17.59,18.5,40.78,0,110.8,13.21,18.41,126.8
"2010-05-18 00:52:00",121524,10.04,164.1,3.045,0.205,17.27,107.1549,17.59,18.51,41.15,0,110.8,13.21,18.41,126.1
"2010-05-18 00:52:30",121525,10.75,164,2.152,0.494,17.3,107.1549,17.59,18.49,41.33,0,110.8,13.21,18.41,126.0
"2010-05-18 00:53:00",121526,11.05,161.3,0.908,0.252,17.19,107.1549,17.59,18.5,41.33,0,110.8,13.21,18.41,123.3
"2010-05-18 00:53:30",121527,10.55,163.5,1.448,0.403,17.27,107.1549,17.59,18.51,41.76,0,110.8,13.21,18.41,125.5
"2010-05-18 00:54:00",121528,10.52,161.7,2.217,0.22,17.3,107.1515,17.58,18.5,41.55,0,110.8,13.21,18.40,123.7
"2010-05-18 00:54:30",121529,10.17,162.6,1.73,0.28,17.43,107.1363,17.54,18.5,41.61,0,110.8,13.21,18.36,124.6
"2010-05-18 00:55:00",121530,10.56,164.2,1.55,0.23,17.56,107.1259,17.52,18.49,41.45,0,110.8,13.22,18.33,126.2
"2010-05-18 00:55:30",121531,10.44,167.1,2.265,0.265,17.63,107.1212,17.51,18.48,41.69,0,110.8,13.22,18.32,129.1
"2010-05-18 00:56:00",121532,10.02,167.3,1.258,0.279,17.66,107.1212,17.51,18.47,41.97,0,110.8,13.22,18.32,129.3
"2010-05-18 00:56:30",121533,9.41,164.8,1.558,0.317,17.62,107.1161,17.49,18.45,41.87,0,110.8,13.22,18.31,126.8
"2010-05-18 00:57:00",121534,9.51,166.3,1.571,0.433,17.67,107.0947,17.44,18.43,42.25,0,110.8,13.22,18.25,128.3
"2010-05-18 00:57:30",121535,10.19,166.9,1.882,0.285,17.77,107.0874,17.42,18.42,41.56,0,110.8,13.22,18.23,128.9
"2010-05-18 00:58:00",121536,10.46,165.3,1.183,0.248,17.68,107.0874,17.42,18.39,41.54,0,110.8,13.22,18.23,127.3
"2010-05-18 00:58:30",121537,10.91,166.5,1.827,0.346,17.8,107.0824,17.41,18.38,41.45,0,110.8,13.22,18.22,128.5
"2010-05-18 00:59:00",121538,10.69,167.3,1.388,0.271,17.75,107.0652,17.36,18.38,41.54,0,110.8,13.22,18.18,129.3
"2010-05-18 00:59:30",121539,10.45,167.8,2.167,0.497,17.79,107.0681,17.37,18.35,41.58,0,110.8,13.22,18.18,129.8
"2010-05-18 01:00:00",121540,11.31,168.9,1.089,0.157,17.91,107.0744,17.39,18.32,41.52,0,110.8,13.22,18.20,130.9
"2010-05-18 01:00:30",121541,10.68,170.4,2.067,0.255,17.86,107.079,17.4,18.31,41.21,0,110.8,13.22,18.21,132.4
"2010-05-18 01:01:00",121542,11.56,166.7,1.692,1.05,17.82,107.0751,17.39,18.33,41.66,0,110.8,13.22,18.20,128.7
"2010-05-18 01:01:30",121543,12.31,165.4,1.585,0.312,17.82,107.0688,17.37,18.3,41.94,0,110.8,13.22,18.18,127.4
"2010-05-18 01:02:00",121544,12.03,166.7,0.791,0.306,17.84,107.0531,17.33,18.29,42.01,0,110.7,13.22,18.14,128.7
"2010-05-18 01:02:30",121545,11.22,166.8,1.176,0.384,17.81,107.0536,17.33,18.29,42.01,0,110.7,13.22,18.15,128.8
"2010-05-18 01:03:00",121546,11.25,166.7,1.368,0.248,17.81,107.0557,17.34,18.27,42.01,0,110.7,13.23,18.15,128.7
"2010-05-18 01:03:30",121547,10.98,169.4,2.232,0.368,17.79,107.0521,17.33,18.25,42.08,0,110.7,13.23,18.14,131.4
"2010-05-18 01:04:00",121548,10.73,173.3,0.927,0.183,17.74,107.0352,17.29,18.25,41.99,0,110.7,13.23,18.10,135.3
"2010-05-18 01:04:30",121549,10.32,170.6,2.12,0.283,17.77,107.0265,17.26,18.23,41.97,0,110.7,13.23,18.08,132.6
"2010-05-18 01:05:00",121550,11.81,169.8,0.749,0.319,17.75,107.0223,17.25,18.23,42.47,0,110.7,13.23,18.06,131.8
"2010-05-18 01:05:30",121551,11.33,169.8,1.07,0.326,17.78,107.0223,17.25,18.2,42.62,0,110.7,13.22,18.06,131.8
"2010-05-18 01:06:00",121552,11.16,170,0.841,0.239,17.76,107.0141,17.23,18.19,42.79,0,110.7,13.22,18.04,132.0
"2010-05-18 01:06:30",121553,10.71,168.7,1.43,0.189,17.77,106.9947,17.18,18.18,42.68,0,110.7,13.22,17.99,130.7
"2010-05-18 01:07:00",121554,10.53,167.4,1.581,0.302,17.71,106.9885,17.17,18.16,42.97,0,110.7,13.22,17.98,129.4
"2010-05-18 01:07:30",121555,10.62,168.6,1.017,0.16,17.69,106.9804,17.14,18.13,43.23,0,110.7,13.22,17.96,130.6
"2010-05-18 01:08:00",121556,10.33,168.5,0.937,0.236,17.77,106.9556,17.08,18.1,42.72,0,110.7,13.22,17.89,130.5
"2010-05-18 01:08:30",121557,9.88,169.9,1.256,0.31,17.75,106.9551,17.08,18.09,42.29,0,110.7,13.22,17.89,131.9
"2010-05-18 01:09:00",121558,9.47,168.2,0.66,0.117,17.74,106.9542,17.08,18.07,41.92,0,110.7,13.23,17.89,130.2
"2010-05-18 01:09:30",121559,9.4,168.9,1.772,0.14,17.74,106.9394,17.04,18.04,41.83,0,110.7,13.23,17.85,130.9
"2010-05-18 01:10:00",121560,9.43,166.7,1.335,0.263,17.69,106.9289,17.01,18.02,41.67,0,110.7,13.23,17.82,128.7
"2010-05-18 01:10:30",121561,9.2,164.3,1.098,0.2,17.7,106.9279,17.01,18.01,41.29,0,110.7,13.23,17.82,126.3
"2010-05-18 01:11:00",121562,9.34,165.4,1.622,0.336,17.71,106.93,17.02,17.99,41.24,0,110.7,13.24,17.83,127.4
"2010-05-18 01:11:30",121563,9.69,166.2,1.591,0.172,17.73,106.9327,17.02,17.97,41.25,0,110.7,13.24,17.83,128.2
"2010-05-18 01:12:00",121564,10.12,163.7,1.305,0.39,17.66,106.9375,17.04,17.97,41.7,0,110.7,13.24,17.85,125.7
"2010-05-18 01:12:30",121565,11.05,162.8,1.145,0.313,17.48,106.9442,17.05,17.98,43.48,0,110.7,13.24,17.86,124.8
"2010-05-18 01:13:00",121566,10.85,165.5,1.868,0.191,17.58,106.9398,17.04,17.96,44.42,0,110.7,13.24,17.85,127.5
"2010-05-18 01:13:30",121567,11.18,163.4,0.804,0.363,17.55,106.9175,16.98,17.96,44.54,0,110.7,13.24,17.80,125.4
"2010-05-18 01:14:00",121568,11.61,164.1,0.787,0.224,17.57,106.9203,16.99,17.95,43.97,0,110.7,13.24,17.80,126.1
"2010-05-18 01:14:30",121569,10.87,166.2,1.3,0.384,17.69,106.9205,16.99,17.92,43.59,0,110.7,13.24,17.80,128.2
"2010-05-18 01:15:00",121570,10.34,167,0.834,0.3,17.74,106.9036,16.95,17.9,43.14,0,110.7,13.24,17.76,129.0
"2010-05-18 01:15:30",121571,10.59,166.6,0.996,0.278,17.7,106.8898,16.91,17.88,43.14,0,110.7,13.24,17.72,128.6
"2010-05-18 01:16:00",121572,10.3,168.6,1.329,0.368,17.77,106.8896,16.91,17.87,43,0,110.7,13.24,17.72,130.6
"2010-05-18 01:16:30",121573,9.83,168.4,0.812,0.427,17.73,106.8896,16.91,17.86,42.78,0,110.7,13.25,17.72,130.4
"2010-05-18 01:17:00",121574,8.82,167.3,1.271,0.131,17.78,106.8896,16.91,17.86,41.83,0,110.7,13.25,17.72,129.3
"2010-05-18 01:17:30",121575,8.82,167.2,1.381,0.188,17.74,106.8896,16.91,17.86,41.62,0,110.7,13.25,17.72,129.2
"2010-05-18 01:18:00",121576,8.85,168.8,1.162,0.177,17.7,106.8896,16.91,17.84,41.68,0,110.7,13.25,17.72,130.8
"2010-05-18 01:18:30",121577,8.99,169.4,0.949,0.13,17.74,106.8896,16.91,17.85,41.28,0,110.7,13.25,17.72,131.4
"2010-05-18 01:19:00",121578,9.15,169.4,1.417,0.181,17.71,106.8896,16.91,17.85,41.06,0,110.7,13.25,17.72,131.4
"2010-05-18 01:19:30",121579,9.38,168.8,1.209,0.153,17.73,106.8898,16.91,17.86,41.16,0,110.7,13.25,17.72,130.8
"2010-05-18 01:20:00",121580,9.28,169.2,0.541,0.113,17.72,106.8898,16.91,17.87,41.12,0,110.7,13.25,17.72,131.2
"2010-05-18 01:20:30",121581,9.44,170.1,0.635,0.124,17.67,106.8896,16.91,17.86,40.97,0,110.7,13.25,17.72,132.1
"2010-05-18 01:21:00",121582,9.72,171.8,0.67,0.1,17.62,106.8899,16.91,17.85,40.95,0,110.7,13.25,17.72,133.8
"2010-05-18 01:21:30",121583,9.28,172.6,0.933,0.167,17.75,106.8899,16.91,17.87,40.28,0,110.7,13.26,17.72,134.6
"2010-05-18 01:22:00",121584,9.15,174.9,0.724,0.121,17.69,106.8928,16.92,17.87,39.21,0,110.7,13.26,17.73,136.9
"2010-05-18 01:22:30",121585,9.55,175.3,0.588,0.223,17.69,106.9014,16.94,17.88,38.79,0,110.7,13.25,17.75,137.3
"2010-05-18 01:23:00",121586,9.64,173.7,0.698,0.263,17.67,106.913,16.97,17.89,39.17,0,110.7,13.25,17.78,135.7
"2010-05-18 01:23:30",121587,9.54,175.1,0.476,0.213,17.67,106.9214,16.99,17.88,39.62,0,110.7,13.24,17.81,137.1
"2010-05-18 01:24:00",121588,9.51,174.4,0.89,0.125,17.68,106.9296,17.01,17.91,39.67,0,110.7,13.24,17.83,136.4
"2010-05-18 01:24:30",121589,9.69,174.9,1.697,0.237,17.69,106.938,17.04,17.92,39.84,0,110.7,13.24,17.85,136.9
"2010-05-18 01:25:00",121590,9.7,174.1,1.147,0.222,17.64,106.9464,17.06,17.92,40.9,0,110.7,13.24,17.87,136.1
"2010-05-18 01:25:30",121591,9.69,170.3,1.509,0.242,17.66,106.9473,17.06,17.93,41.4,0,110.6,13.25,17.87,132.3
"2010-05-18 01:26:00",121592,9.41,168.6,0.749,0.177,17.62,106.9356,17.03,17.93,41.87,0,110.6,13.25,17.84,130.6
"2010-05-18 01:26:30",121593,9.26,168.7,0.713,0.116,17.68,106.9268,17.01,17.92,41.59,0,110.7,13.25,17.82,130.7
"2010-05-18 01:27:00",121594,9.47,168.7,1.13,0.182,17.56,106.9216,16.99,17.91,41.73,0,110.6,13.25,17.81,130.7
"2010-05-18 01:27:30",121595,9.59,169.6,1.124,0.194,17.62,106.9214,16.99,17.91,41.44,0,110.6,13.25,17.81,131.6
"2010-05-18 01:28:00",121596,10.23,168.1,1.557,0.461,17.61,106.9242,17,17.9,41.33,0,110.6,13.26,17.81,130.1
"2010-05-18 01:28:30",121597,10.54,167.4,0.824,0.22,17.67,106.9254,17,17.9,41.15,0,110.6,13.26,17.82,129.4
"2010-05-18 01:29:00",121598,10.77,165.8,0.734,0.351,17.67,106.9257,17,17.89,41.34,0,110.6,13.26,17.82,127.8
"2010-05-18 01:29:30",121599,11.43,166.8,0.729,0.319,17.64,106.9257,17,17.9,42.74,0,110.6,13.26,17.82,128.8
"2010-05-18 01:30:00",121600,11.28,168.2,0.849,0.223,17.7,106.9257,17,17.9,42.93,0,110.6,13.26,17.82,130.2
"2010-05-18 01:30:30",121601,11.41,170.3,0.647,0.184,17.71,106.9257,17,17.9,43.53,0,110.6,13.26,17.82,132.3
"2010-05-18 01:31:00",121602,11.41,169.4,0.911,0.171,17.76,106.9254,17,17.92,43.66,0,110.6,13.26,17.82,131.4
"2010-05-18 01:31:30",121603,10.99,172.3,0.679,0.18,17.8,106.9243,17,17.9,43.32,0,110.6,13.26,17.81,134.3
"2010-05-18 01:32:00",121604,11.02,172,0.994,0.093,17.8,106.924,17,17.89,43.75,0,110.6,13.26,17.81,134.0
"2010-05-18 01:32:30",121605,11.15,169.9,0.857,0.115,17.79,106.9254,17,17.9,43.94,0,110.6,13.26,17.82,131.9
"2010-05-18 01:33:00",121606,11.17,171,0.87,0.115,17.83,106.9254,17,17.89,43.98,0,110.6,13.26,17.82,133.0
"2010-05-18 01:33:30",121607,11.53,171,0.621,0.192,17.84,106.9251,17,17.9,44.04,0,110.6,13.26,17.81,133.0
"2010-05-18 01:34:00",121608,11.23,171.5,0.604,0.167,17.85,106.9248,17,17.9,44.06,0,110.6,13.26,17.81,133.5
"2010-05-18 01:34:30",121609,11.09,170.8,0.702,0.146,17.81,106.9254,17,17.91,44.12,0,110.6,13.26,17.82,132.8
"2010-05-18 01:35:00",121610,11.53,170.1,0.778,0.128,17.79,106.9257,17,17.9,44.22,0,110.6,13.26,17.82,132.1
"2010-05-18 01:35:30",121611,11.59,170,0.899,0.119,17.77,106.9234,17,17.91,44.22,0,110.6,13.26,17.81,132.0
"2010-05-18 01:36:00",121612,11.75,170.2,0.513,0.134,17.78,106.9198,16.99,17.92,44.28,0,110.6,13.26,17.80,132.2
"2010-05-18 01:36:30",121613,11.69,171,0.725,0.118,17.78,106.9099,16.96,17.92,44.36,0,110.6,13.26,17.78,133.0
"2010-05-18 01:37:00",121614,11.86,169.7,1.206,0.262,17.78,106.904,16.95,17.92,44.44,0,110.6,13.27,17.76,131.7
"2010-05-18 01:37:30",121615,11.82,171,1.166,0.201,17.8,106.9,16.94,17.93,44.45,0,110.6,13.27,17.75,133.0
"2010-05-18 01:38:00",121616,11.59,169.6,1.11,0.181,17.76,106.897,16.93,17.91,44.54,0,110.6,13.27,17.74,131.6
"2010-05-18 01:38:30",121617,11.5,168.3,1.628,0.199,17.7,106.8933,16.92,17.92,44.65,0,110.6,13.27,17.73,130.3
"2010-05-18 01:39:00",121618,11.76,168.9,0.688,0.143,17.74,106.8919,16.92,17.9,44.7,0,110.6,13.26,17.73,130.9
"2010-05-18 01:39:30",121619,11.93,169.9,1.011,0.165,17.78,106.8919,16.92,17.89,44.67,0,110.6,13.26,17.73,131.9
"2010-05-18 01:40:00",121620,11.78,169.4,0.63,0.112,17.78,106.8919,16.92,17.89,44.59,0,110.6,13.26,17.73,131.4
"2010-05-18 01:40:30",121621,11.72,168.2,0.956,0.187,17.74,106.8925,16.92,17.88,44.82,0,110.6,13.26,17.73,130.2
"2010-05-18 01:41:00",121622,12.05,166.4,1.698,0.257,17.74,106.8914,16.92,17.87,44.99,0,110.6,13.26,17.73,128.4
"2010-05-18 01:41:30",121623,11.87,167.6,2.341,0.373,17.7,106.8895,16.91,17.85,45.04,0,110.6,13.26,17.72,129.6
"2010-05-18 01:42:00",121624,12.06,166.8,1.249,0.244,17.71,106.8845,16.9,17.87,45.18,0,110.6,13.26,17.71,128.8
"2010-05-18 01:42:30",121625,12.36,167,0.904,0.143,17.75,106.8714,16.87,17.85,45.02,0,110.6,13.26,17.68,129.0
"2010-05-18 01:43:00",121626,12.03,165.5,2.336,0.34,17.67,106.8674,16.86,17.84,45.21,0,110.6,13.26,17.67,127.5
"2010-05-18 01:43:30",121627,12.09,164.9,1.327,0.244,17.67,106.8701,16.86,17.83,45.25,0,110.6,13.26,17.67,126.9
"2010-05-18 01:44:00",121628,12.23,166.5,1.117,0.218,17.74,106.8753,16.88,17.84,45.19,0,110.6,13.26,17.69,128.5
"2010-05-18 01:44:30",121629,11.7,163.5,2.351,0.501,17.57,106.8786,16.88,17.82,45.49,0,110.6,13.26,17.70,125.5
"2010-05-18 01:45:00",121630,12.67,166.8,0.985,0.171,17.7,106.8795,16.89,17.82,45.15,0,110.6,13.27,17.70,128.8
"2010-05-18 01:45:30",121631,12.01,165,1.838,0.363,17.55,106.8823,16.89,17.83,45.84,0,110.6,13.27,17.70,127.0
"2010-05-18 01:46:00",121632,12.12,166.7,1.72,0.482,17.69,106.8597,16.84,17.8,45.59,0,110.6,13.27,17.65,128.7
"2010-05-18 01:46:30",121633,12.86,167.9,0.611,0.216,17.82,106.8564,16.83,17.79,45.05,0,110.6,13.27,17.64,129.9
"2010-05-18 01:47:00",121634,12.18,167,1.495,0.372,17.64,106.8517,16.82,17.79,45.67,0,110.6,13.27,17.63,129.0
"2010-05-18 01:47:30",121635,12.37,166.4,3.038,0.428,17.68,106.8514,16.81,17.78,45.66,0,110.6,13.27,17.63,128.4
"2010-05-18 01:48:00",121636,12.16,166.7,1.617,0.429,17.75,106.8523,16.82,17.76,45.5,0,110.6,13.27,17.63,128.7